11 de agosto de 2022

Hora Código Clima Temp. Visibilidade Tecto Vento METAR/SPECI
14:00
V
23 °C 10 km+ - 070° 070° 15 kt METAR AYMH 110400Z 07015KT 9999 SCT030 SCT050 23/14 Q1021
13:00
V
23 °C 10 km+ - 070° 070° 10 kt METAR AYMH 110300Z 07010KT 9999 SCT030 23/14 Q1021
12:00
V
23 °C 10 km+ - 090° 090° 7 kt METAR AYMH 110200Z 09007KT 9999 HZ SCT050 23/14 Q1021
11:00
V
21 °C 10 km+ - Var Var 4 kt METAR AYMH 110100Z VRB04KT 9999 HZ FEW030 21/15 Q1022
10:00
V
19 °C 10 km+ - Var Var 2 kt METAR AYMH 110000Z VRB02KT 9999 HZ SCT030 19/15 Q1022
09:00
I
17 °C 10 km+ 800 ft Var Var 2 kt METAR AYMH 102300Z VRB02KT 9999 BKN008 BKN015 17/15 Q1023
08:00
L
15 °C 0 m 400 ft Var Var 2 kt METAR AYMH 102200Z VRB02KT 5000M FG BKN004 OVC015 15/15 Q1022=
07:00
M
14 °C 10 km+ 1.500 ft Var Var 3 kt METAR AYMH 102100Z VRB03KT 9999 FG BKN000 BKN015 14/14 Q1022
06:00
V
15 °C 10 km+ 3.000 ft Var Var 2 kt METAR AYMH 102000Z VRB02KT 9999 FG BKN030 15/14 Q1021

10 de agosto de 2022

Hora Código Clima Temp. Visibilidade Tecto Vento METAR/SPECI
17:00
V
22 °C 10 km+ 3.000 ft Var Var 4 kt METAR AYMH 100700Z VRB04KT 9999 FUHZ BKN030 BKN060 22/17 Q1018
16:00
M
23 °C 10 km+ 2.500 ft 260° 260° 10 kt METAR AYMH 100600Z 26010KT 9999 FUHZ BKN025 BKN040 23/17 Q1018
14:00
V
25 °C 10 km+ 3.000 ft Var Var 4 kt METAR AYMH 100400Z VRB04KT 9999 HZ BKN030 25/14 Q1019
13:00
V
24 °C 10 km+ - Var Var 3 kt METAR AYMH 100300Z VRB03KT 9999 SCT040 24/14 Q1019
12:00
V
23 °C 10 km+ - Var Var 4 kt METAR AYMH 100200Z VRB04KT 9999 HZ SCT030 23/13 Q1020
11:00
V
23 °C 10 km+ - Var Var 4 kt METAR AYMH 100100Z VRB04KT 9999 HZ SCT030 23/15 Q1021
10:00
V
21 °C 10 km+ - Var Var 4 kt METAR AYMH 100000Z VRB04KT 9999 HZ SCT030 21/15 Q1022
09:00
V
20 °C 10 km+ - Var 000° 0 kt METAR AYMH 092300Z 00000KT 9999 HZ FEW030 20/15 Q1022
08:00
V
16 °C 10 km+ - Var 000° 0 kt METAR AYMH 092200Z 00000KT 9999 HZ SCT030 16/15 Q1021
07:00
V
16 °C 10 km+ - Var 000° 0 kt METAR AYMH 092100Z 00000KT 9999 HZ SCT020 16/15 Q1021
06:00
M
16 °C 10 km+ 2.000 ft Var 000° 0 kt METAR AYMH 092000Z 00000KT 9999 FG BKN020 16/15 Q1021

9 de agosto de 2022

Hora Código Clima Temp. Visibilidade Tecto Vento METAR/SPECI
18:00
V
21 °C 10 km+ - Var Var 4 kt METAR AYMH 090800Z VRB04KT 9999 HZ SCT050 21/15 Q1018
17:00
V
23 °C 10 km+ - 090° 090° 6 kt METAR AYMH 090700Z 09006KT 9999 FUHZ SCT050 23/14 Q1017
16:00
V
24 °C 10 km+ - 090° 090° 8 kt METAR AYMH 090600Z 09008KT 9999 FUHZ SCT050 24/14 Q1017
15:00
V
25 °C 10 km+ - 090° 090° 7 kt METAR AYMH 090500Z 09007KT 9999 HZ SCT040 25/13 Q1017
14:00
V
25 °C 10 km+ - 090° 090° 7 kt METAR AYMH 090400Z 09007KT 9999 HZ SCT040 25/13 Q1017=
13:00
V
25 °C 10 km+ - Var Var 4 kt METAR AYMH 090300Z VRB04KT 9999 HZ SCT040 25/11 Q1019
Dados mais antigos

Nós e terceiros acompanhamos seu comportamento na internet em nosso site com cookies. Se você continuar, nós assumimos que você concorda com nossa política de cookies. Saiba mais